Corpus Christi, TX

5:59 PM CDT on July 28, 2016 (GMT -0500)
Corpus Christi International

Weather History for KCRP - April, 2014

Change the Weather History Date:

Thursday, April 10, 2014

  Actual Average Record
Temperature  
Mean Temperature 73 °F 71 °F  
Max Temperature 85 °F 81 °F 92 °F (1984)
Min Temperature 61 °F 62 °F 41 °F (2003)
Degree Days  
Heating Degree Days 0 1  
Month to date heating degree days 2 10  
Since 1 July heating degree days 1133 891  
Cooling Degree Days 8 7  
Month to date cooling degree days 64 64  
Year to date cooling degree days 225 255  
Growing Degree Days 22 (Base 50)    
Moisture  
Dew Point 60 °F    
Average Humidity 68    
Maximum Humidity 93    
Minimum Humidity 43    
Precipitation  
Precipitation 0.00 in 0.06 in 1.46 in (1985)
Month to date precipitation 0.27 0.54  
Year to date precipitation 2.83 5.90  
Snow  
Snow 0.00 in - - ()
Month to date snowfall 0.0  
Since 1 July snowfall T  
Snow Depth 0.00 in    
Sea Level Pressure  
Sea Level Pressure 30.06 in    
Wind  
Wind Speed 17 mph (SSE)    
Max Wind Speed 31 mph    
Max Gust Speed 40 mph    
Visibility 10 miles    
Events      
T = Trace of Precipitation, MM = Missing Value Source: NWS Daily Summary

Daily Weather History Graph

Daily Weather History Graph

Search for Another Location

Airport or City:

Trip Planner

Search our weather history database for the weather conditions in past years. The results will help you decide how hot, cold, wet, or windy it might be!

Date:

Astronomy

Apr. 10, 2014 Rise Set
Actual Time 7:10 AM CDT 7:52 PM CDT
Civil Twilight 6:46 AM CDT 8:16 PM CDT
Nautical Twilight 6:18 AM CDT 8:44 PM CDT
Astronomical Twilight 5:50 AM CDT 9:12 PM CDT
Moon 3:58 PM CDT (4/10) 4:11 AM CDT (4/10)
Length of Visible Light 13h 29m
Length of Day
12h 41m
Waxing Gibbous, 80% of the Moon is Illuminated
Apr 10
Waxing Gibbous
Apr 15
Full
Apr 22
Last Quarter
Apr 29
New
May 6
First Quarter

Hourly Weather History & Observations

Time (CDT) Temp. Heat Index Dew Point Humidity Pressure Visibility Wind Dir Wind Speed Gust Speed Precip Events Conditions
12:51 AM 64.9 °F - 57.9 °F 78% 30.14 in 10.0 mi SSE 10.4 mph - N/A   Mostly Cloudy
1:51 AM 64.9 °F - 59.0 °F 81% 30.13 in 10.0 mi SSE 10.4 mph - N/A   Mostly Cloudy
2:51 AM 64.9 °F - 60.1 °F 84% 30.11 in 10.0 mi South 10.4 mph - N/A   Mostly Cloudy
3:51 AM 63.0 °F - 60.1 °F 90% 30.10 in 10.0 mi South 6.9 mph - N/A   Partly Cloudy
4:51 AM 62.1 °F - 59.0 °F 90% 30.08 in 10.0 mi SSE 8.1 mph - N/A   Partly Cloudy
5:51 AM 62.1 °F - 59.0 °F 90% 30.07 in 10.0 mi SSE 8.1 mph - N/A   Partly Cloudy
6:51 AM 63.0 °F - 60.1 °F 90% 30.08 in 10.0 mi SSE 8.1 mph - N/A   Partly Cloudy
7:51 AM 64.0 °F - 61.0 °F 90% 30.09 in 10.0 mi SSE 9.2 mph - N/A   Partly Cloudy
8:51 AM 71.1 °F - 62.1 °F 73% 30.10 in 10.0 mi South 17.3 mph - N/A   Partly Cloudy
9:51 AM 75.9 °F - 60.1 °F 58% 30.11 in 10.0 mi South 23.0 mph 32.2 mph N/A   Scattered Clouds
10:51 AM 79.0 °F - 59.0 °F 50% 30.11 in 10.0 mi South 23.0 mph 31.1 mph N/A   Scattered Clouds
11:51 AM 82.9 °F 82.4 °F 57.0 °F 41% 30.11 in 10.0 mi South 24.2 mph 28.8 mph N/A   Scattered Clouds
12:51 PM 84.0 °F 83.8 °F 59.0 °F 43% 30.08 in 10.0 mi SSE 20.7 mph 33.4 mph N/A   Scattered Clouds
1:51 PM 84.0 °F 84.0 °F 60.1 °F 44% 30.06 in 10.0 mi SSE 21.9 mph 33.4 mph N/A   Scattered Clouds
2:51 PM 82.9 °F 82.8 °F 59.0 °F 44% 30.03 in 10.0 mi SSE 25.3 mph 34.5 mph N/A   Partly Cloudy
3:51 PM 81.0 °F 81.3 °F 59.0 °F 47% 30.01 in 10.0 mi SSE 26.5 mph 38.0 mph N/A   Partly Cloudy
4:51 PM 80.1 °F 80.7 °F 59.0 °F 48% 29.99 in 10.0 mi SE 26.5 mph 35.7 mph N/A   Partly Cloudy
5:51 PM 78.1 °F - 59.0 °F 52% 29.99 in 10.0 mi SSE 28.8 mph 39.1 mph N/A   Partly Cloudy
6:51 PM 75.0 °F - 59.0 °F 57% 29.99 in 10.0 mi SSE 24.2 mph 35.7 mph N/A   Scattered Clouds
7:51 PM 72.0 °F - 60.1 °F 66% 29.99 in 10.0 mi SSE 17.3 mph 31.1 mph N/A   Scattered Clouds
8:51 PM 70.0 °F - 60.1 °F 71% 29.99 in 10.0 mi SSE 16.1 mph 28.8 mph N/A   Mostly Cloudy
9:51 PM 69.8 °F - 60.8 °F 73% 30.02 in 10.0 mi SSE 16.1 mph - N/A   Mostly Cloudy
10:51 PM 69.1 °F - 61.0 °F 75% 30.03 in 10.0 mi SSE 15.0 mph - N/A   Mostly Cloudy
11:51 PM 68.0 °F - 60.1 °F 76% 30.02 in 10.0 mi SSE 13.8 mph - N/A   Overcast